AirNav   Pilot Hours Calculator
 
 1089 users online  

29M Waite Field Airport
Durand, Michigan, USA

GOING TO DURAND?


FAA INFORMATION EFFECTIVE 30 JANUARY 2020

Location

FAA Identifier: 29M
Lat/Long: 42-53-26.5900N 083-55-55.9000W
42-53.443167N 083-55.931667W
42.8907194,-83.9321944
(estimated)
Elevation: 821 ft. / 250.2 m (surveyed)
From city: 3 miles SE of DURAND, MI
Time zone: UTC -5 (UTC -4 during Daylight Saving Time)
Zip code: 48429

Airport Operations

Airport use: Open to the public
Activation date: 07/2012
Control tower: no
ARTCC: CLEVELAND CENTER
FSS: LANSING FLIGHT SERVICE STATION
NOTAMs facility: LAN (NOTAM-D service available)
Attendance: UNATNDD
Wind indicator: yes
Segmented circle: no

Airport Communications

CTAF: 122.9
WX ASOS at FNT (9 nm NE): 133.15 (810-342-7804)
WX AWOS-3 at RNP (11 nm NW): 118.025 (989-729-2967)
WX AWOS-3 at OZW (16 nm S): 118.875 (517-546-4450)

Nearby radio navigation aids

VOR radial/distance  VOR name  Freq  Var
FNTr247/9.3FLINT VORTAC116.9006W
SVMr336/32.6SALEM VORTAC114.3003W
MBSr174/39.0SAGINAW VOR/DME112.9003W

Airport Services

Runway Information

Runway 3/21

Dimensions: 3400 x 60 ft. / 1036 x 18 m
Surface: turf, in poor condition
ROUGH WITH SLOPING TERRAIN.
Runway edge markings: RWY MKD WITH 3 FT YELLOW CONES.
RUNWAY 3  RUNWAY 21
Traffic pattern: leftright
Displaced threshold: 600 ft.no
Markings: NSTDNSTD
Obstructions: 23 ft. tree, 59 ft. from runway, 30 ft. left of centerline, 2:1 slope to clear
APCH RATIO AT DSPLCD THLD 25:1 OVER 45 FT TREE, 1140 FT DSTC, 45 FT R.
50 ft. tree, 761 ft. from runway, 125 ft. left of centerline, 15:1 slope to clear

Airport Ownership and Management from official FAA records

Ownership: Privately-owned
Owner: LEE A. WAITE
7294 S. SHERIDAN
DURAND, MI 48429
Phone (989) 288-0564
OWNER LIVES ON PREMISES.
Manager: LEE A. WAITE
7294 S. SHERIDAN
DURAND, MI 48429
Phone 989-288-3156

Airport Operational Statistics

Aircraft operations: 100/year *
50% transient general aviation
50% local general aviation
* for 12-month period ending 31 December 2018

Additional Remarks

DEER ON & INVOF ARPT.
FOR IFR CLEARANCE CTC CLEVELAND ARTCC (ZOB) 126.75/348.75 OR CALL ZOB 440-774-0224.

Instrument Procedures

There are no published instrument procedures at 29M.

Some nearby airports with instrument procedures:

9G2 - Price's Airport (9 nm SE)
KFNT - Bishop International Airport (9 nm NE)
KRNP - Owosso Community Airport (11 nm NW)
KOZW - Livingston County Spencer J Hardy Airport (16 nm S)
KPTK - Oakland County International Airport (26 nm SE)
 
Loc | Ops | Rwys | IFR | FBO | Links
Com | Nav | Svcs | Stats | Notes
Aerial photo
No photo
 
Airport distance calculator
Flying to Waite Field Airport? Find the distance to fly.

From to 29M

Sunrise and sunset
Times for 16-Feb-2020
 Local
(UTC-5)
 Zulu
(UTC)
Morning civil twilight07:0412:04
Sunrise07:3312:33
Sunset18:0723:07
Evening civil twilight18:3623:36

Current date and time
Zulu (UTC)  16-Feb-2020 18:42:09
Local (UTC-5)  16-Feb-2020 13:42:09
 
METAR
KFNT 
9nm NE 
161753Z 27009KT 10SM FEW024 03/M04 A3005 RMK AO2 SLP186 T00281044 10028 21011 58004
KRNP 
11nm NW 
161815Z AUTO 27010KT 10SM SCT070 03/M04 A3004 RMK AO2 T00251044
KOZW 
17nm S 
161816Z AUTO 26009KT 10SM CLR 02/M04 A3005 RMK AO2 T00201043
TAF
KFNT 
9nm NE 
161720Z 1618/1718 27010KT P6SM SCT020 SCT060 FM162000 27010KT P6SM FEW025 BKN060 FM170200 32004KT P6SM SCT100 FM171000 07004KT P6SM BKN100 FM171500 12007KT P6SM BKN150
NOTAMs
Click for the latest NOTAMs
NOTAMs are issued by the DoD/FAA and will open in a separate window not controlled by AirNav.

 

 
 

Would you like to see your business listed on this page?

 If your business provides an interesting product or service to pilots, flight crews, aircraft, or users of the Waite Field Airport, you should consider listing it here.  To start the listing process, click on the button below
 
Add a business
 

Other Pages about Waite Field Airport

Page from the Michigan Airport Directory (PDF)
 
Update a link
 
Copyright © AirNav, LLC. All rights reserved. Privacy Policy  Contact